TimeMDT,TemperatureF,Dew PointF,Humidity,Sea Level PressureIn,VisibilityMPH,Wind Direction,Wind SpeedMPH,Gust SpeedMPH,PrecipitationIn,Events,Conditions,WindDirDegrees,DateUTC
12:53 AM,66.0,19.9,17,29.84,10.0,East,4.6,-,N/A,,Clear,90,2013-06-12 06:53:00
1:53 AM,64.0,25.0,23,29.84,10.0,Calm,Calm,-,N/A,,Clear,0,2013-06-12 07:53:00
2:53 AM,66.0,26.1,22,29.83,10.0,East,16.1,-,N/A,,Clear,90,2013-06-12 08:53:00
3:53 AM,64.0,24.1,22,29.84,10.0,SE,11.5,-,N/A,,Clear,130,2013-06-12 09:53:00
4:53 AM,57.9,27.0,31,29.86,10.0,ESE,5.8,-,N/A,,Clear,120,2013-06-12 10:53:00
5:53 AM,57.9,27.0,31,29.88,10.0,SE,8.1,-,N/A,,Clear,130,2013-06-12 11:53:00
6:53 AM,66.9,26.1,21,29.88,10.0,ESE,12.7,-,N/A,,Clear,110,2013-06-12 12:53:00
7:53 AM,66.9,32.0,27,29.89,10.0,SSE,11.5,-,N/A,,Clear,160,2013-06-12 13:53:00
8:53 AM,75.0,25.0,16,29.88,10.0,SE,12.7,-,N/A,,Clear,130,2013-06-12 14:53:00
9:53 AM,75.9,28.9,18,29.89,10.0,SE,5.8,-,N/A,,Clear,130,2013-06-12 15:53:00
10:53 AM,81.0,27.0,14,29.89,10.0,SSE,3.5,-,N/A,,Clear,150,2013-06-12 16:53:00
11:53 AM,86.0,26.1,11,29.87,10.0,West,5.8,-,N/A,,Clear,260,2013-06-12 17:53:00
12:53 PM,88.0,26.1,11,29.86,10.0,NW,11.5,-,N/A,,Clear,310,2013-06-12 18:53:00
1:53 PM,90.0,25.0,10,29.83,10.0,WNW,12.7,19.6,N/A,,Clear,290,2013-06-12 19:53:00
2:53 PM,91.9,23.0,8,29.80,10.0,WNW,13.8,-,N/A,,Partly Cloudy,300,2013-06-12 20:53:00
3:53 PM,91.9,21.0,8,29.79,10.0,Variable,6.9,-,N/A,,Clear,0,2013-06-12 21:53:00
4:53 PM,91.9,16.0,6,29.79,10.0,WNW,17.3,20.7,N/A,,Partly Cloudy,300,2013-06-12 22:53:00
5:53 PM,90.0,21.0,8,29.80,10.0,West,11.5,-,N/A,,Clear,260,2013-06-12 23:53:00
6:53 PM,88.0,19.0,8,29.78,10.0,WSW,10.4,-,N/A,,Clear,240,2013-06-13 00:53:00
7:53 PM,84.9,19.9,9,29.80,10.0,South,6.9,-,N/A,,Clear,190,2013-06-13 01:53:00
8:53 PM,82.9,19.9,10,29.79,10.0,South,5.8,-,N/A,,Clear,180,2013-06-13 02:53:00
9:53 PM,77.0,19.0,11,29.81,10.0,East,4.6,-,N/A,,Clear,80,2013-06-13 03:53:00
10:53 PM,75.0,19.0,12,29.80,10.0,ESE,10.4,-,N/A,,Clear,110,2013-06-13 04:53:00
11:53 PM,75.9,19.9,12,29.78,10.0,ESE,11.5,-,N/A,,Clear,110,2013-06-13 05:53:00